Simultaneous Nadir Overpasses (SNOs) Predictions

Prediction of SNOs between AURA and LANDSAT-8 Satellite Orbit:

Table of predicted SNOs for the next 14.0 days since TLE Epoch: 2/13/2025
Index Date (AURA) Time (AURA) Lat,Lon (AURA) SZA (AURA ) Date (LANDSAT-8) Time (LANDSAT-8) Lat,Lon (LANDSAT-8) SZA (LANDSAT-8 ) Distance(km) Time Diff (sec)
1 02/14/2025 20:53:04 -72.62, 49.69 94.77 02/14/2025 20:51:58 -72.59, 47.27 94.77 80.32 66
2 02/14/2025 21:42:28 72.74,-142.88 85.34 02/14/2025 21:41:21 72.71,-144.85 85.34 65.22 67
3 02/14/2025 22:31:54 -73.06, 24.15 94.35 02/14/2025 22:30:43 -73.02, 23.38 94.38 25.39 71
4 02/14/2025 23:21:18 73.18,-168.44 85.77 02/14/2025 23:20:06 73.14,-168.73 85.74 10.52 72
5 02/15/2025 00:10:39 -73.24, -0.89 94.19 02/15/2025 00:09:32 -73.23, -0.91 94.19 1.14 67
6 02/15/2025 01:00:01 73.26, 166.74 85.82 02/15/2025 00:58:57 73.25, 166.77 85.82 1.01 64
7 02/15/2025 01:49:21 -73.26, -25.61 94.19 02/15/2025 01:48:25 -73.24, -25.63 94.21 2.96 56
8 02/15/2025 02:38:43 73.28, 142.02 85.82 02/15/2025 02:37:50 73.26, 142.05 85.80 2.69 53
9 02/15/2025 03:28:03 -73.29, -50.33 94.19 02/15/2025 03:27:17 -73.29, -50.23 94.18 3.16 46
10 02/15/2025 04:17:24 73.25, 117.41 85.76 02/15/2025 04:16:43 73.26, 117.34 85.78 2.64 41
11 02/15/2025 05:06:45 -73.31, -75.05 94.19 02/15/2025 05:06:10 -73.30, -74.95 94.20 3.35 35
12 02/15/2025 05:56:06 73.27, 92.69 85.76 02/15/2025 05:55:36 73.26, 92.63 85.76 2.24 30
13 02/15/2025 06:45:26 -73.28, -99.66 94.25 02/15/2025 06:45:03 -73.30, -99.66 94.22 2.71 23
14 02/15/2025 07:34:48 73.29, 67.97 85.76 02/15/2025 07:34:29 73.27, 67.91 85.74 3.40 19
15 02/15/2025 08:24:08 -73.30,-124.37 94.25 02/15/2025 08:23:56 -73.30,-124.37 94.24 0.68 12
16 02/15/2025 09:13:30 73.31, 43.26 85.76 02/15/2025 09:13:21 73.32, 43.31 85.77 1.95 9
17 02/15/2025 10:02:50 -73.32,-149.09 94.25 02/15/2025 10:02:49 -73.31,-149.09 94.26 1.36 1
18 02/15/2025 10:52:12 73.34, 18.54 85.76 02/15/2025 10:52:14 73.33, 18.59 85.75 2.12 2
19 02/15/2025 11:41:32 -73.34,-173.81 94.25 02/15/2025 11:41:42 -73.31,-173.80 94.28 3.42 10
20 02/15/2025 12:30:53 73.31, -6.07 85.71 02/15/2025 12:31:07 73.33, -6.12 85.73 3.08 14
21 02/15/2025 13:20:13 -73.31, 161.58 94.30 02/15/2025 13:20:35 -73.32, 161.49 94.30 3.02 22
22 02/15/2025 14:09:35 73.33, -30.79 85.71 02/15/2025 14:10:00 73.33, -30.83 85.71 1.44 25
23 02/15/2025 14:58:55 -73.34, 136.86 94.30 02/15/2025 14:59:28 -73.32, 136.77 94.32 3.30 33
24 02/15/2025 15:48:17 73.35, -55.51 85.71 02/15/2025 15:48:53 73.34, -55.55 85.69 1.88 36
25 02/15/2025 16:37:37 -73.36, 112.14 94.31 02/15/2025 16:38:20 -73.38, 112.17 94.29 2.19 43
26 02/15/2025 17:26:59 73.37, -80.23 85.70 02/15/2025 17:27:45 73.39, -80.15 85.72 3.37 46
27 02/15/2025 18:16:19 -73.38, 87.42 94.31 02/15/2025 18:17:13 -73.38, 87.45 94.31 0.98 54
28 02/15/2025 19:05:41 73.40,-104.95 85.70 02/15/2025 19:06:38 73.40,-104.86 85.70 2.72 57
29 02/15/2025 19:55:01 -73.40, 62.70 94.31 02/15/2025 19:56:06 -73.38, 62.74 94.33 2.42 65
30 02/15/2025 20:44:23 73.42,-129.67 85.70 02/15/2025 20:45:31 73.40,-129.58 85.68 3.54 68
31 02/15/2025 21:33:46 -73.58, 37.65 94.15 02/15/2025 21:34:57 -73.49, 38.25 94.25 21.26 71
32 02/15/2025 22:23:10 73.70,-154.95 85.97 02/15/2025 22:24:19 73.67,-153.74 85.92 38.25 69
33 02/15/2025 23:12:35 -73.97, 12.13 93.77 02/15/2025 23:13:42 -73.91, 14.43 93.85 71.33 67
34 02/16/2025 00:02:00 74.14, 179.38 86.40 02/16/2025 00:03:04 74.09,-177.53 86.32 94.26 64



Historial Predications of SNOs between AURA and LANDSAT-8
